www.pogodaiklimat.ru

Погода и климат >> Архив погоды >> Кот-д'Ивуар >> Одиенне


ПОГОДА в Одиенне

  • Прогноз погоды в Одиенне
  • Монитор погоды в Одиенне

АРХИВ ПОГОДЫ в Одиенне

Время (UTC), дата Ветер
(напр.,м/с)
 
Видим.   Явления Облачность Т
(С)
Тd
(С)
f
(%)
Тe
(С)
Тes
(С)
Комфортность P
(гПа)
Po
(гПа)
Тmin
(С)
Tmax
(С)
R
(мм)
R24
(мм)
S
(см)
12 10.08 С 1 10 км {дождь} 9/9 330 м
[Sc]
+25.5 +22.6 84 +34 +36 очень
душно
1015.5 968.8 12
15 10.08 ЮЗ 2 10 км 8/5 400 м
[Cb cap Ac trans]
+27.9 +23.0 75 +37 +42 очень
душно
1012.1 965.9
18 10.08 штиль 0 10 км 6/5 400 м
[Cb cap Ac trans]
+26.6 +23.3 82 +36 +36 очень
душно
1011.4 965.1 +28.5 12
21 10.08 СЗ 2 6000 м дождь 9/9 150 м
[Cb cap]
+23.0 +22.7 98 +32 +32 очень
душно
1014.8 967.8
06 11.08 штиль 0 8000 м 9/3 330 м
[Sc Ac As]
+22.9 +22.8 99 +31 +31 очень
душно
1014.3 967.3 +21.6 27
09 11.08 ЮВ 1 10 км 8/0 400 м
[Ac As]
+24.5 +23.1 92 +33 +39 очень
душно
1015.2 984.0
12 11.08 Ю 2 10 км 9/9 400 м
[Cu med, cong]
+28.1 +23.7 77 +39 +41 очень
душно
1013.4 967.2
15 11.08 Ю 1 10 км 8/8 400 м
[Cu med, cong]
+29.9 +22.9 66 +40 +43 очень
душно
1010.4 964.6
18 11.08 СЗ 1 8000 м 8/6 400 м
[Cb cap]
+28.4 +23.6 75 +39 +39 очень
душно
1010.2 964.2 +30.4
06 12.08 штиль 0 8000 м 9/8 400 м
[Sc Ac trans]
+23.0 +23.0 100 +32 +32 очень
душно
1013.4 966.4 +22.0 1
09 12.08 Ю 1 8000 м 8/1 150 м
[Cu med, cong]
+25.7 +22.8 84 +34 +40 очень
душно
1014.0 967.4
12 12.08 СЗ 2 10 км 6/6 400 м
[Cu med, cong Ac trans]
+28.7 +21.9 67 +37 +46 очень
душно
1012.8 966.7
15 12.08 З 4 10 км 8/8 450 м
[Cu med, cong]
+30.0 +22.1 63 +39 +41 очень
душно
1009.6 963.8
18 12.08 СЗ 3 10 км 4/4 450 м
[Cu med, cong]
+29.4 +22.0 64 +38 +38 очень
душно
1009.6 963.7 +30.8
21 12.08 С 1 10 км 4/3 400 м
[Cu med, cong Ac trans]
+25.5 +23.2 87 +34 +34 очень
душно
1011.9 965.4
00 13.08 штиль 0 10 км 4/3 400 м
[Sc Ci sp]
+24.7 +22.7 89 +33 +33 очень
душно
1012.5 965.8
03 13.08 штиль 0 8000 м 6/4 400 м
[Sc Ac As]
+23.9 +22.3 91 +31 +31 очень
душно
1011.1 964.4
06 13.08 С 1 8000 м 6/3 400 м
[Sc Ac As]
+22.5 +22.1 98 +30 +30 очень
душно
1011.6 964.6 +21.8
09 13.08 З 3 10 км 8/8 400 м
[Sc]
+25.5 +23.5 89 +35 +36 очень
душно
1012.7 966.2
12 13.08 СЗ 2 10 км 8/8 400 м
[Cu med, cong]
+28.8 +22.9 70 +38 +43 очень
душно
1011.3 965.3
15 13.08 З 2 10 км 6/6 450 м
[Cu med, cong]
+31.0 +23.2 63 +41 +47 опасность
перегрева
1008.2 962.7
18 13.08 штиль 0 10 км гроза без осадков 8/4 400 м
[Cb cap Ci ing]
+29.2 +24.7 77 +42 +42 опасность
перегрева
1007.8 962.1 +31.2
21 13.08 ЮВ 1 8000 м гроза без осадков 9/3 400 м
[Cb cap Ac trans Ci sp]
+25.3 +23.1 88 +34 +34 очень
душно
1010.5 964.0
00 14.08 В 4 8000 м гроза без осадков 9/6 400 м
[Cb cap Ci sp]
+24.0 +23.0 94 +32 +32 очень
душно
1011.8 965.1
06 14.08 Ю 1 8000 м {гроза, дождь} 5/5 400 м
[Cb cap Ac As]
+21.8 +21.8 100 +28 +28 душно 1012.3 965.2 +21.1 15
09 14.08 ЮЗ 1 10 км {дождь} 4/3 400 м
[Cu med, cong Ac trans]
+25.2 +22.1 83 +33 +39 очень
душно
1013.1 966.5
18 14.08 штиль 0 6000 м гроза без осадков 8/8 400 м
[Cb cap Ci sp]
+27.2 +23.9 82 +37 +38 очень
душно
1008.9 962.8 +32.0 0.2
06 15.08 В 1 10 км {гроза, дождь} 9/9 150 м
[Frnb]
+22.1 +22.1 100 +29 +29 очень
душно
1012.7 965.6 +21.5 44
09 15.08 ЮВ 1 8000 м 6/1 150 м
[Cu med, cong]
+25.1 +22.5 86 +33 +39 очень
душно
1013.9 967.2
12 15.08 ЮВ 1 10 км 8/8 400 м
[Cu med, cong]
+28.6 +23.0 72 +38 +43 очень
душно
1012.6 966.5
15 15.08 ЮВ 3 10 км 6/6 450 м
[Cu med, cong]
+30.7 +22.5 62 +40 +45 очень
душно
1009.8 964.1
18 15.08 ЮВ 1 10 км 3/3 450 м
[Cu med, cong]
+28.8 +23.4 73 +39 +40 очень
душно
1009.8 963.9 +31.0
21 15.08 Ю 1 10 км зарница 4/4 400 м
[Cb cap]
+26.2 +23.8 87 +36 +36 очень
душно
1011.9 965.5
00 16.08 ЮЗ 1 8000 м 6/3 400 м
[Cb cap Ac As]
+25.5 +23.5 89 +35 +35 очень
душно
1012.5 966.0
03 16.08 штиль 0 8000 м {дождь} 8/4 400 м
[Cu med, cong Ac As]
+24.4 +22.8 91 +32 +32 очень
душно
1012.4 965.7
06 16.08 Ю 1 8000 м {дождь} 6/3 400 м
[Sc Ac trans Ci sp]
+22.3 +22.2 99 +30 +30 очень
душно
1013.1 966.0 +21.8 0.3
09 16.08 Ю 2 10 км 9/3 300 м
[Sc Ci sp]
+24.9 +22.3 85 +32 +37 очень
душно
1013.2 966.5
12 16.08 С 1 10 км 10/8 400 м
[Cu med, cong]
+29.0 +22.8 69 +38 +41 очень
душно
1012.3 966.3
15 16.08 З 2 10 км 6/6 400 м
[Cu med, cong]
+31.4 +23.0 61 +42 +47 опасность
перегрева
1008.4 962.9
18 16.08 З 1 10 км 9/4 400 м
[Cb cap Ci sp]
+30.0 +23.6 69 +41 +41 опасность
перегрева
1008.6 962.9 +31.4
21 16.08 С 1 8000 м зарница 9/3 400 м
[Cb cap Ci sp]
+26.2 +23.5 85 +36 +36 очень
душно
1011.3 964.9
06 17.08 В 1 8000 м слаб. ливневой дождь, в посл. час гроза 9/3 400 м
[Cb cap Ac As]
+22.7 +22.7 100 +31 +31 очень
душно
1012.4 965.4 +21.7 9
09 17.08 З 1 8000 м 9/9 400 м
[Cu med, cong]
+25.0 +23.1 89 +33 +34 очень
душно
1013.1 966.5

 

Местоположение метеостанции Одиенне (Кот-д'Ивуар): широта 9.54 долгота -7.56 высота над уровнем моря 421 м.

В архиве по умолчанию представлена погода в Одиенне за последнюю неделю. Архивные данные за месяц целиком и за предыдущие месяцы, начиная с января 2011 года, Вы можете получить, выбрав интересующий диапазон дат из раскрывающегося списка и нажав кнопку "Ввод!".


*Определитесь, кто Вы:
робот инопланетянин человек

Внимание! Время в таблицах - всемирное. Для получения местного времени необходимо прибавить поправку, которая равна 0 ч.

Смотрите также архив погоды в соседних городах и на ближайших метеорологических станциях:

Погода в Бугуни (Мали) (209 км)
Погода в Корого (Кот-д'Ивуар) (213 км)
Погода в Мане (Кот-д'Ивуар) (240 км)
Погода в Сикасо (Мали) (288 км)
Погода в Далоа (Кот-д'Ивуар) (320 км)
Погода в Бамако (Мали) (335 км)
Погода в Буаке (Кот-д'Ивуар) (338 км)
Погода в Ямусукро (Кот-д'Ивуар) (381 км)
Погода в Кутиале (Мали) (390 км)
Погода в Бобо-Диуласо (Буркина-Фасо) (398 км)

Пояснения к столбцам:

Ветер - указаны скорость ветра в м/с - средняя за 10 мин, порывы в срок и между сроками (в фигурных скобках) и направление, откуда дует ветер: С - северный, СВ - северо-восточный, В - восточный, ЮВ - юго-восточный, Ю - южный, ЮЗ - юго-западный, З - западный, СЗ - северо-западный.
Видимость - горизонтальная дальность видимости в метрах или километрах. При видимости от 1 до 10 км при отсутствии осадков обычно наблюдается дымка, при ухудшении видимости до 1 км и менее - туман. В сухую погоду видимость может ухудшаться дымом, пылью или мглою.
Явления - указаны атмосферные явления, наблюдавшиеся в срок или в последний час перед сроком; фигурными скобками обозначены явления, наблюдавшиеся между сроками (за 1-3 часа до срока); квадратными скобками обозначены град или гололедные отложения с указанием их диаметра в мм.
Облачность - указаны через наклонную черту общая и нижняя облачность в баллах и высота нижней границы облаков в метрах; квадратными скобками обозначены формы облаков: Ci - перистые, Cs - перисто-слоистые, Cc - перисто-кучевые, Ac - высококучевые, As - высокослоистые, Sc - слоисто-кучевые, Ns - слоисто-дождевые, Cu - кучевые, Cb - кучево-дождевые. Подробнее классификацию облаков см. в Атласе облаков (PDF).
T - Температура воздуха - температура, измеренная на высоте 2 м над землей.
Td - Температура точки росы - температура, при понижении до которой содержащийся в воздухе водяной пар достигнет насыщения.
f - Относительная влажность воздуха - влажноcть воздуха, измеренная на высоте 2 м над землей.
Te - Эффективная температура - температура, которую ощущает одетый по сезону человек в тени. Характеристика душности погоды. При расчете учитывается влияние влажности воздуха и скорости ветра на теплоощущения человека.
Tes - Эффективная температура на солнце - температура, которую ощущает человек, с поправкой на солнечный нагрев. Характеристика знойности погоды. Зависит от высоты солнца над горизонтом, облачности и скорости ветра. Ночью, в пасмурную погоду, а также при ветре 12 м/с и более поправка равна нулю.
P - Атмосферное давление - приведенное к уровню моря атмосферное давление.
Po - Атмосферное давление - измеренное на уровне метеостанции атмосферное давление.
Tmin - Минимальная температура - минимум температуры воздуха на высоте 2 м над землей.
Tmax - Максимальная температура - максимум температуры воздуха на высоте 2 м над землей.
R - Количество осадков - Количество выпавших осадков за период времени, мм. При наведении курсора мыши на число - период времени, за который выпало указанное количество осадков.
R24 - Количество осадков - Количество выпавших осадков за 24 часа, мм.
S - Снежный покров - Высота снежного покрова, см. При наведении курсора мыши на число - состояние снежного покрова и степень покрытия местности в баллах.